STARLINK-32414, 61667

Orbit data source: Space-Track

STARLINK-32414, 61667 is a payload satellite owned by SpaceX/Seattle (US) in LEO that was launched on Sat, 26 Oct 2024 UTC via an FALCON 9 launch vehicle from the Air Force Eastern Test Range (AFETR). Payload-class satellites include a variety of spacecraft equipped with specific instruments for various scientific and technological missions. These include communications satellites like Starlink; space stations such as the ISS; scientific satellites like the Hubble; Earth observation satellites from companies like Planet Labs, Umbra, and HawkEye 360; GPS; miniature CubeSats for education and research; and military/defense satellites.

Loading next visibility...
Identifier
61667, 2024-193G
Orbit
LEO
Country
Flag of USUS
Related business
Manufacturer
SpaceX/Seattle
Mission
Operational Commercial Communications
Bus & Motor
STARLINK V2M, Unknown motor
Mass
730 kg wet, ~700 kg dry
Launch date (UTC)
2024-10-26 (2 years ago)
Launch vehicle
FALCON 9
Launch site
Air Force Eastern Test Range (AFETR)
Object type
Payload
Rocket body
Debris
Shape & HBR
Box + 2 Pan, 17.7 m
Radar Cross Section
33.884 m², Large (>1 m²)

Expand to show TLE details & history
Last TLE update: 16 hours ago

TLE from 16 hours ago
0 STARLINK-32414
1 61667U 24193G   26171.16762618  .00000285  00000-0  21767-4 0  9991
2 61667  53.1623 335.2104 0001513  78.9929 281.1242 15.30193879 92210
Epoch: 2026-06-20T04:01Z
TLE epoch observation values (Epoch: 2026-06-20T04:01:22.901Z)
Latitude
-0.00004°
Longitude
6.47882°
Altitude
475.933 km
Speed
7.629 km/s
True Right ascension
22h 20m 50s
True Declination
0° 00' 00"
Sunlit
Object was in partial shadow at epoch
Visualization orbit readout
Latitude
Unknown
Longitude
Unknown
Altitude
Unknown
Speed
Unknown
Apparent Right ascension
Unknown
Apparent Declination
Unknown
Sunlit
N/A
Visualization observer readout
Local Sidereal Time
07:20:25
Azimuth
Unknown
Elevation
Unknown
Doppler factor
Unknown
Orbital elements
Apogee altitude
476.526 km
Perigee altitude
474.452 km
Semi-major axis
6,853.626 km
Eccentricity
0.00015
Inclination
53.1623°
RAAN
335.2104°
Arg. of periapsis
78.9929°
True anomaly
281.10719°
Mean anomaly
281.1242°
Eccentric anomaly
281.11569°
Mean motion
3.82527 °/min
Orbital period
94.11 mins
BSTAR
0.000021767
Loading maneuver chart data...
Computing Atmospheric mass density...
Loading historical data...
Loading historical data...
Loading historical data...
Loading historical data...
Loading historical data...
Loading historical data...
Loading historical data...

Documentation

Showing up to 5 results
|